Home   Weather   Marengo   Past weeks

Flag for USA Past Weather in Marengo, Indiana, USA — Yesterday and Last 2 Weeks

Now
61 °F

Partly sunny.


Feels Like: 61 °F
Forecast: 45 / 58 °F
Wind: 16 mph from Southwest

Location: Bowling Green-Warren County Regional Airport

Current Time: Jan 17, 2017 at 4:50:59 pm

Latest Report: Jan 17, 2017 at 3:53 pm


Visibility: 10 mi

Pressure: 30.00 "Hg

Humidity: 62%

Dew Point: 48 °F

Location of MarengoLocation

Past Weather in Marengo — Graph

°F

Marengo Temperature Yesterday

Maximum temperature yesterday: 67 °F (at 2:53 pm)
Minimum temperature yesterday: 45 °F (at 12:43 am)
Average temperature yesterday: 55 °F

High & Low Weather Summary for the Past Weeks

 TemperatureHumidityPressure
High71 °F (Jan 12, 3:53 pm)100% (Jan 14, 12:31 am)30.83 "Hg (Jan 14, 12:31 am)
Low10 °F (Jan 7, 7:53 am)30% (Jan 9, 12:53 pm)29.72 "Hg (Jan 3, 2:53 am)
Average43 °F77%30.23 "Hg
* Reported Jan 2 2:53 pm — Jan 17 2:53 pm, Marengo, Weather by CustomWeather, © 2017

Note: Actual official high and low records may vary slightly from our data, if they occured in-between our weather recording intervals... More about our weather records

Advertising

Marengo Weather History for the Previous 24 Hours

Scroll right to see more
 ConditionsComfort  
Time TempWeatherWind HumidityBarometerVisibility
2:53 pm
Tue, Jan 17
62 °FSunny.14 mph60%29.98 "Hg10 mi
1:53 pm62 °FScattered clouds.10 mph70%29.98 "Hg10 mi
1:29 pm62 °FBroken clouds.12 mph73%29.99 "Hg10 mi
12:53 pm63 °FPassing clouds.17 mph63%30.01 "Hg10 mi
11:53 am63 °FBroken clouds.17 mph75%30.02 "Hg10 mi
10:53 am64 °FMore clouds than sun.14 mph84%30.01 "Hg10 mi
10:13 am65 °FLight rain. Cloudy.14 mph85%30.01 "Hg10 mi
9:53 am64 °FPartly sunny.15 mph90%29.99 "Hg10 mi
9:25 am64 °FBroken clouds.9 mph87%29.99 "Hg10 mi
9:08 am64 °FCloudy.10 mph87%29.99 "Hg10 mi
8:10 am64 °FCloudy.12 mph87%29.98 "Hg10 mi
7:53 am63 °FMostly cloudy.14 mph90%29.97 "Hg10 mi
6:53 am63 °FOvercast.13 mph90%29.96 "Hg10 mi
5:53 am61 °FLight rain. Fog.13 mph93%29.95 "Hg4 mi
5:23 am62 °FLight rain. Fog.13 mph86%29.97 "Hg6 mi
4:53 am61 °FLight rain. Mostly cloudy.12 mph90%29.96 "Hg10 mi
3:53 am60 °FLight rain. Overcast.10 mph90%29.98 "Hg10 mi
3:17 am60 °FLight rain. Fog.7 mph90%29.99 "Hg6 mi
2:53 am60 °FLight rain. Fog.12 mph86%29.99 "Hg5 mi
2:34 am60 °FRain. Fog.8 mph86%29.99 "Hg4 mi
1:53 am60 °FRain. Fog.15 mph86%29.98 "Hg5 mi
12:53 am60 °FLight rain. Mostly cloudy.10 mph86%30.00 "Hg10 mi
11:53 pm
Mon, Jan 16
60 °FLight rain. Mostly cloudy.15 mph86%30.02 "Hg7 mi
10:53 pm65 °FPartly cloudy.21 mph63%30.03 "Hg10 mi
9:53 pm65 °FPartly cloudy.10 mph61%30.04 "Hg10 mi
8:53 pm65 °FPassing clouds.12 mph59%30.06 "Hg10 mi
7:53 pm64 °FPassing clouds.7 mph63%30.08 "Hg10 mi
6:53 pm65 °FPassing clouds.8 mph61%30.09 "Hg10 mi
5:53 pm66 °FOvercast.8 mph63%30.10 "Hg10 mi
4:53 pm66 °FPassing clouds.6 mph68%30.10 "Hg10 mi
Weather by CustomWeather, © 2017

See weather overviewHow to use our weather pages